Location: Peebles
(55.6412°N, 3.1714°W)
Time: 22:32:31
(UTC+00:00)

deb Agena D - Pass Details

Date: 23 September 2023
Orbit: 794 x 979 km, 99.8° (Epoch: 28 November)

Event Time Altitude Azimuth Distance (km) Brightness Sun altitude
Rises 01:09:15 0° 19° (NNE) 3,694 10.5 -34.2°
Reaches altitude 10° 01:11:46 10° 22° (NNE) 2,745 9.6 -34.2°
Enters shadow 01:16:26 49° 48° (NE) 1,240 7.1 -34.2°
